Content
SEND FEEDBACK

Daily
Averages
Monthly
Summary
Spain

MAHON, SPAIN


Home > Europe > Spain
Elevation: 269 feet     Latitude: 39 52N     Longitude: 004 14E

WEATHER
 
SELECT A DAY
Number of Records: 249,583;   Date Range: 7/1/96 - 7/7/14
 
SHARE

PRINT THIS DATA

[ ← Previous Day ]
WEATHER ALMANAC - OCTOBER 12, 2013
[ Next Day → ]
[ °C ]   °F
Weather ElementAverageHighLow
Temperature67 °F71.6 °F (2:30 pm)62.6 °F (12:30 am)
Dewpoint60.2 °F66.2 °F (9:00 pm)53.6 °F (9:00 am)
Humidity78.6 %94 % (9:00 pm)62 % (2:00 pm)
Barometer30.05 in30.09 in (12:30 pm)29.98 in (12:30 am)
Wind Speed10.7 mph16.1 mph (2:00 am)
Weather ElementAverage
Visibility6.7 mi
Wind DirectionE (87.7 °)

Weather ElementTotal
Precipitation---
Cooling Degree Days2.1 (Base 65)
Growing Degree Days17.1 (Base 50)
Averaged from 43 records on October 12, 2013
WEATHER CONDITIONS BREAKOUT
WIND DIRECTION BREAKOUT
WEATHER BY HOUR - OCTOBER 12, 2013
[ °C ]   °F
Local TimeTemperatureDewpointHumidityBarometerVisibilityWind DirectionWind SpeedGust SpeedPrecipitationEventsConditions
12:30 AM62.6 °F57.2 °F82 %29.98 in6.2 miNE (50°)13.8 mphMostly Cloudy
2:00 AM63.0 °F57.0 °F74 %29.99 in7.0 miNE (50°)16.1 mphMostly Cloudy
2:00 AM62.6 °F57.2 °F82 %29.98 in6.2 miNE (50°)16.1 mphMostly Cloudy
5:00 AM62.6 °F55.4 °F77 %29.98 in6.2 miENE (60°)15.0 mphScattered Clouds
5:30 AM62.6 °F55.4 °F77 %29.98 in6.2 miENE (60°)15.0 mphScattered Clouds
6:00 AM62.6 °F55.4 °F77 %30.01 in6.2 miENE (60°)16.1 mphScattered Clouds
6:30 AM62.6 °F55.4 °F77 %30.01 in6.2 miNE (50°)16.1 mphScattered Clouds
7:00 AM62.6 °F55.4 °F77 %30.01 in6.2 miNE (50°)13.8 mphMostly Cloudy
7:30 AM62.6 °F55.4 °F77 %30.01 in6.2 miENE (60°)13.8 mphScattered Clouds
8:00 AM62.6 °F55.4 °F77 %30.04 in6.2 miNE (50°)16.1 mphMostly Cloudy
8:30 AM62.6 °F55.4 °F77 %30.04 in6.2 miENE (60°)16.1 mphMostly Cloudy
9:00 AM62.6 °F53.6 °F72 %30.04 in6.2 miENE (70°)13.8 mphMostly Cloudy
9:30 AM64.4 °F55.4 °F73 %30.04 in6.2 miENE (70°)13.8 mphPartly Cloudy
10:00 AM66.2 °F55.4 °F68 %30.06 in6.2 miEast (80°)13.8 mphPartly Cloudy
10:30 AM66.2 °F55.4 °F68 %30.06 in6.2 miENE (70°)16.1 mphPartly Cloudy
11:00 AM68.0 °F57.2 °F68 %30.06 in6.2 miEast (90°)13.8 mphPartly Cloudy
11:30 AM66.2 °F57.2 °F73 %30.06 in6.2 miEast (80°)13.8 mphScattered Clouds
12:00 PM68.0 °F57.2 °F68 %30.06 in6.2 miENE (70°)13.8 mphScattered Clouds
12:30 PM68.0 °F57.2 °F68 %30.09 in6.2 miEast (80°)13.8 mphMostly Cloudy
1:00 PM66.2 °F59.0 °F78 %30.09 in6.2 miEast (80°)11.5 mphMostly Cloudy
1:30 PM68.0 °F59.0 °F73 %30.06 in6.2 miEast (90°)13.8 mphPartly Cloudy
2:00 PM69.8 °F60.8 °F73 %30.06 in6.2 miEast (100°)11.5 mphPartly Cloudy
2:00 PM71.0 °F61.0 °F62 %30.07 in18.0 miEast (100°)11.5 mphScattered Clouds
2:30 PM71.6 °F60.8 °F69 %30.06 in6.2 miEast (100°)11.5 mphPartly Cloudy
3:00 PM69.8 °F62.6 °F78 %30.06 in6.2 miESE (120°)11.5 mphPartly Cloudy
3:30 PM71.6 °F62.6 °F73 %30.06 in6.2 miESE (120°)11.5 mphPartly Cloudy
4:00 PM71.6 °F62.6 °F73 %30.04 in6.2 miESE (120°)11.5 mphPartly Cloudy
4:30 PM71.6 °F62.6 °F73 %30.04 in6.2 miSE (130°)10.4 mphPartly Cloudy
5:00 PM71.6 °F64.4 °F78 %30.04 in6.2 miESE (120°)10.4 mphPartly Cloudy
5:30 PM69.8 °F64.4 °F83 %30.04 in6.2 miESE (120°)10.4 mphPartly Cloudy
6:00 PM69.8 °F64.4 °F83 %30.06 in6.2 miSE (130°)9.2 mphPartly Cloudy
6:30 PM69.8 °F64.4 °F83 %30.06 in6.2 miESE (120°)6.9 mphPartly Cloudy
7:00 PM69.8 °F64.4 °F83 %30.06 in6.2 miESE (120°)4.6 mphPartly Cloudy
7:30 PM68.0 °F64.4 °F88 %30.06 in6.2 miVariable2.3 mphPartly Cloudy
8:00 PM68.0 °F64.0 °F84 %30.07 in14.0 miESE (110°)3.5 mphScattered Clouds
8:00 PM68.0 °F64.4 °F88 %30.06 in6.2 miESE (120°)3.5 mphPartly Cloudy
8:30 PM68.0 °F64.4 °F88 %30.06 in6.2 miVariable2.3 mphPartly Cloudy
9:00 PM68.0 °F66.2 °F94 %30.06 in6.2 miVariable2.3 mphPartly Cloudy
9:30 PM68.0 °F66.2 °F94 %30.06 in6.2 miSSE (150°)3.5 mphPartly Cloudy
10:00 PM68.0 °F66.2 °F94 %30.09 in6.2 miSSE (160°)4.6 mphPartly Cloudy
10:30 PM68.0 °F64.4 °F88 %30.09 in6.2 miVariable2.3 mphPartly Cloudy
11:00 PM68.0 °F66.2 °F94 %30.09 in6.2 miSW (220°)3.5 mphPartly Cloudy
11:30 PM68.0 °F66.2 °F94 %30.09 in6.2 miSW (230°)3.5 mphPartly Cloudy
Hourly data recorded from LEMH, located miles away from Mahon, Spain







STORIES FROM OUR PARTNERS